CAPE
0 0 0 0 0 0 0 0 62 471 776 985 963 760 314 314 319 112 124 302 475 418 215 172 88 144 214 475 27 727 974 912 935
0 0 0 0 0 0 0 0 0 41 186 585 902 741 354 488 68 115 43 347 608 592 251 186 115 80 176 321 457 269 678 987 928
119 94 148 260 202 46 2 0 0 0 0 60 277 562 249 313 64 10 154 300 261 682 375 177 230 90 117 189 374 469 399 745 756
312 321 164 217 378 183 20 0 0 0 0 0 0 0 0 5 2 0 375 271 329 750 877 254 169 278 136 129 211 360 717 494 722
0 0 0 2 0 0 0 0 0 0 0 0 0 0 0 0 0 1 63 0 107 434 592 981 288 229 463 411 191 214 413 636 705
0 0 0 0 0 0 0 0 0 0 0 0 0 0 0 0 0 0 0 0 0 0 202 619 875 385 304 458 704 419 212 460 544
0 0 0 0 0 0 0 0 0 0 0 0 0 0 0 0 0 0 0 0 0 0 0 283 831 749 502 501 345 593 702 360 667
0 0 0 0 0 0 0 0 0 0 0 0 0 0 0 0 0 4 0 0 0 0 0 0 379 864 695 483 432 473 771 819 532
0 0 0 0 0 0 0 0 0 0 0 0 0 0 0 0 0 0 0 0 0 0 0 0 0 264 919 778 558 453 437 719 773
0 0 0 0 0 0 0 0 0 0 0 0 0 0 0 0 0 0 0 0 0 0 0 0 0 0 0 536 705 732 524 510 650
0 0 0 0 0 0 0 0 0 0 0 0 0 0 0 0 0 0 0 0 0 0 0 0 0 0 0 0 246 725 552 605 465
0 0 0 0 0 0 0 0 0 0 0 0 0 0 0 0 0 0 0 0 0 0 0 0 0 0 0 0 0 254 781 569 662
0 0 0 0 0 0 0 0 0 0 0 0 0 0 0 0 0 0 0 0 0 0 0 0 0 0 0 0 0 0 503 800 550
0 0 0 0 0 0 0 0 0 0 0 0 0 0 0 0 0 0 0 0 0 0 0 0 0 0 0 0 0 0 0 622 913
0 0 0 0 0 0 0 0 0 0 0 0 0 0 0 0 0 0 0 0 0 0 0 0 0 0 0 0 0 0 0 3 944
0 0 0 0 0 0 0 0 0 0 0 0 0 0 0 0 0 0 0 0 0 0 0 0 0 0 0 0 0 0 0 0 24
0 0 0 0 0 0 0 0 0 0 0 0 0 0 0 0 0 0 0 0 0 0 0 0 0 0 0 0 0 0 0 0 0
0 0 0 0 0 0 0 0 0 0 0 0 0 0 0 0 0 0 0 0 0 0 0 0 0 0 0 0 0 0 0 0 0
0 0 0 0 0 0 0 0 0 0 0 0 0 0 0 0 0 0 0 0 0 0 0 0 0 0 0 0 0 0 0 0 0
0 0 0 0 0 0 0 0 0 0 0 0 0 0 0 0 0 0 0 0 0 0 0 0 0 0 0 0 0 0 0 0 0
CIN
-0 -0 -0 -0 -0 -0 -0 -0 -84 -4 -0 -0 -0 -9 -33 -40 -31 -94 -101 -57 -20 -23 -93 -113 -164 -120 -72 -14 -188 -0 -0 -0 -0
-0 -0 -0 -0 -0 -0 -0 -0 -0 -87 -54 -3 -0 -11 -25 -18 -103 -86 -153 -47 -9 -4 -79 -101 -151 -173 -99 -46 -22 -44 -0 -0 -0
-22 -20 -10 -1 -0 -21 -0 -0 -0 -0 -0 -32 -43 -26 -39 -10 -116 -85 -94 -54 -60 -0 -39 -95 -83 -158 -142 -94 -33 -17 -20 -0 -0
-0 -0 -13 -5 -0 -8 -25 -0 -0 -0 -0 -0 -0 -0 -0 -39 -59 -0 -48 -51 -34 -5 -0 -60 -98 -58 -131 -132 -74 -29 -0 -7 -0
-0 -0 -0 -0 -0 -0 -0 -0 -0 -0 -0 -0 -0 -0 -0 -0 -0 -0 -178 -0 -135 -16 -9 -1 -51 -76 -20 -25 -90 -63 -16 -1 -1
-0 -0 -0 -0 -0 -0 -0 -0 -0 -0 -0 -0 -0 -0 -0 -0 -0 -0 -0 -0 -0 -0 -92 -7 -0 -19 -47 -16 -2 -22 -59 -9 -4
-0 -0 -0 -0 -0 -0 -0 -0 -0 -0 -0 -0 -0 -0 -0 -0 -0 -0 -0 -0 -0 -0 -0 -59 -4 -1 -5 -7 -30 -6 -3 -11 -1
-0 -0 -0 -0 -0 -0 -0 -0 -0 -0 -0 -0 -0 -0 -0 -0 -0 -0 -0 -0 -0 -0 -0 -0 -62 -1 -0 -3 -4 -8 -1 -2 -5
-0 -0 -0 -0 -0 -0 -0 -0 -0 -0 -0 -0 -0 -0 -0 -0 -0 -0 -0 -0 -0 -0 -0 -0 -0 -101 -0 -0 -1 -4 -8 -1 -3
-0 -0 -0 -0 -0 -0 -0 -0 -0 -0 -0 -0 -0 -0 -0 -0 -0 -0 -0 -0 -0 -0 -0 -0 -0 -0 -0 -29 -4 -0 -1 -1 -0
-0 -0 -0 -0 -0 -0 -0 -0 -0 -0 -0 -0 -0 -0 -0 -0 -0 -0 -0 -0 -0 -0 -0 -0 -0 -0 -0 -0 -92 -5 -3 -1 -3
-0 -0 -0 -0 -0 -0 -0 -0 -0 -0 -0 -0 -0 -0 -0 -0 -0 -0 -0 -0 -0 -0 -0 -0 -0 -0 -0 -0 -0 -81 -3 -2 -1
-0 -0 -0 -0 -0 -0 -0 -0 -0 -0 -0 -0 -0 -0 -0 -0 -0 -0 -0 -0 -0 -0 -0 -0 -0 -0 -0 -0 -0 -0 -22 -2 -3
-0 -0 -0 -0 -0 -0 -0 -0 -0 -0 -0 -0 -0 -0 -0 -0 -0 -0 -0 -0 -0 -0 -0 -0 -0 -0 -0 -0 -0 -0 -0 -6 -0
-0 -0 -0 -0 -0 -0 -0 -0 -0 -0 -0 -0 -0 -0 -0 -0 -0 -0 -0 -0 -0 -0 -0 -0 -0 -0 -0 -0 -0 -0 -0 -7 -0
-0 -0 -0 -0 -0 -0 -0 -0 -0 -0 -0 -0 -0 -0 -0 -0 -0 -0 -0 -0 -0 -0 -0 -0 -0 -0 -0 -0 -0 -0 -0 -0 -28
-0 -0 -0 -0 -0 -0 -0 -0 -0 -0 -0 -0 -0 -0 -0 -0 -0 -0 -0 -0 -0 -0 -0 -0 -0 -0 -0 -0 -0 -0 -0 -0 -0
-0 -0 -0 -0 -0 -0 -0 -0 -0 -0 -0 -0 -0 -0 -0 -0 -0 -0 -0 -0 -0 -0 -0 -0 -0 -0 -0 -0 -0 -0 -0 -0 -0
-0 -0 -0 -0 -0 -0 -0 -0 -0 -0 -0 -0 -0 -0 -0 -0 -0 -0 -0 -0 -0 -0 -0 -0 -0 -0 -0 -0 -0 -0 -0 -0 -0
-0 -0 -0 -0 -0 -0 -0 -0 -0 -0 -0 -0 -0 -0 -0 -0 -0 -0 -0 -0 -0 -0 -0 -0 -0 -0 -0 -0 -0 -0 -0 -0 -0
Wind_Speed
20 20 21 21 21 21 21 21 21 21 21 21 21 21 21 19 17 21 21 21 22 22 22 22 21 21 20 20 18 18 19 19 20
20 20 21 21 21 21 21 21 21 21 21 21 21 22 21 21 21 21 21 20 21 21 22 22 21 20 20 19 19 18 17 18 17
20 20 20 21 21 21 22 22 22 22 21 22 22 22 22 23 21 21 20 20 21 21 20 21 20 20 19 19 19 18 16 16 16
20 20 21 21 22 22 23 23 23 22 22 22 23 23 23 23 22 22 18 20 21 22 21 19 19 19 18 18 18 18 17 15 15
20 21 22 22 22 23 24 24 24 24 22 22 23 24 23 22 23 22 19 22 23 23 23 21 16 17 16 16 16 16 16 16 12
19 21 22 23 23 23 24 25 26 26 22 21 24 24 23 24 23 23 21 23 24 25 25 24 19 15 15 15 14 14 14 14 10
19 20 22 23 25 23 25 25 26 26 26 26 26 26 27 26 24 21 23 24 25 26 25 25 24 14 15 14 14 13 12 11 10
21 22 23 24 25 25 26 26 26 28 27 28 28 28 28 27 27 23 23 25 26 26 26 25 23 21 14 15 14 13 13 10 9
21 22 23 24 25 26 27 27 28 28 28 29 29 30 30 29 29 26 24 26 28 28 27 26 24 22 19 15 14 13 13 12 10
21 22 23 24 25 27 28 29 29 30 30 30 31 31 31 31 30 30 28 27 29 30 29 28 27 25 23 22 16 14 13 13 13
21 22 24 25 26 28 29 30 31 31 32 32 32 32 32 32 32 31 32 29 29 29 31 30 29 28 27 25 24 19 15 15 14
21 23 25 27 28 29 30 31 32 33 33 34 33 33 33 33 33 32 32 32 30 27 28 31 31 30 29 28 26 26 20 17 16
22 24 26 28 29 30 32 33 34 35 35 36 35 35 35 35 35 34 32 32 32 32 31 30 29 33 31 29 28 27 26 21 20
23 25 27 29 30 31 33 34 35 37 37 37 36 37 36 35 35 35 34 33 31 30 32 28 29 31 31 31 31 30 28 27 23
25 26 28 30 32 33 35 36 36 38 38 39 40 38 37 37 36 35 34 33 32 31 29 30 31 29 28 31 33 33 32 31 29
25 28 30 32 34 35 36 37 39 39 39 41 41 40 41 34 33 36 33 33 32 32 31 30 30 31 29 29 31 32 34 35 33
27 29 32 33 35 36 37 38 40 39 38 41 43 43 41 35 31 33 36 40 37 36 34 33 33 33 33 34 34 32 34 36 37
28 30 32 34 35 37 38 38 39 41 38 37 37 43 42 45 41 40 40 40 38 39 38 38 38 38 37 37 37 36 34 34 35
29 30 33 35 36 38 38 38 38 39 41 38 37 38 42 49 53 42 42 43 44 44 43 42 41 39 39 39 39 37 34 35 36
29 32 34 36 37 38 39 39 38 38 40 40 41 41 42 43 49 56 48 44 42 42 42 42 41 39 39 40 40 41 40 38 37
Wind_Direction
5 5 2 1 359 356 353 351 348 348 348 345 344 338 322 290 19 356 358 5 359 357 358 359 2 5 10 8 11 12 26 38 46
4 1 0 358 356 354 351 348 344 342 339 337 338 329 311 309 332 332 350 2 354 357 359 1 1 1 2 3 10 18 21 42 44
4 3 1 357 356 353 350 348 344 341 337 334 333 328 316 296 328 327 344 354 347 339 2 4 6 6 4 2 2 11 17 19 43
4 2 358 355 353 350 344 342 338 336 332 329 326 321 313 297 311 294 348 340 331 319 331 359 5 11 11 9 5 3 5 19 54
353 351 349 350 348 341 336 330 328 325 333 331 321 317 315 318 312 315 334 325 317 312 310 332 6 6 10 10 8 7 4 5 53
356 351 350 347 344 340 334 330 326 319 327 334 324 318 324 319 318 316 329 324 314 306 307 307 332 354 357 3 6 7 6 4 33
356 354 350 346 337 341 335 333 327 324 320 319 317 314 310 311 316 322 323 318 311 308 309 309 310 340 343 347 351 356 3 5 10
353 349 344 340 340 335 332 331 330 326 322 317 313 309 307 309 309 318 319 317 313 311 310 312 312 319 332 334 335 336 338 347 348
355 352 348 344 339 336 334 332 329 327 324 319 315 311 309 309 307 312 318 314 311 309 310 312 312 313 319 324 326 327 326 327 327
358 354 350 346 342 338 334 331 328 325 323 321 318 315 312 309 308 308 311 312 309 306 306 305 306 306 307 309 314 317 318 314 313
356 353 349 346 343 338 335 331 328 325 322 319 317 315 314 312 310 309 307 309 309 307 304 303 302 301 301 300 301 303 305 307 305
353 349 346 342 340 337 335 331 328 325 323 320 318 317 314 313 311 310 309 308 309 309 307 302 299 298 297 297 295 295 295 295 298
347 344 342 340 338 336 334 331 327 324 322 319 318 316 314 312 311 310 309 308 306 306 305 303 301 298 294 294 293 291 290 287 287
344 342 340 339 337 335 333 330 328 324 322 320 318 316 315 313 312 309 308 308 306 306 305 304 302 300 296 293 290 289 286 285 281
340 338 337 336 334 332 330 327 326 323 320 317 314 315 314 311 310 309 310 309 308 306 305 303 303 301 298 296 291 287 285 282 280
334 333 332 332 330 328 328 326 323 322 322 316 314 313 312 313 312 309 310 310 309 306 303 302 302 300 298 296 295 289 285 282 279
331 330 329 329 327 327 326 324 322 321 322 317 315 311 312 313 317 314 310 306 305 304 302 300 299 298 296 294 293 290 287 283 278
327 327 327 326 326 324 323 323 321 318 319 318 315 312 308 309 308 308 307 305 303 302 300 298 297 295 293 291 289 287 285 283 281
325 325 326 325 324 322 322 322 320 318 315 316 313 309 308 305 303 305 303 302 300 299 298 296 295 294 292 290 288 285 284 283 281
324 324 324 322 322 321 320 319 318 316 314 313 312 309 308 306 303 301 302 301 299 299 298 297 296 294 292 290 288 285 283 280 279